Regional Weather Roundup
Issued by NWS

Home | Current Version | Previous Version | Graphics & Text | Print | Product List | Glossary On
Versions: 1 2 3 4 5 6 7 8 9 10 11 12 13 14 15 16 17 18 19 20 21 22 23 24 25 26 27
000
ASUS45 KBOI 260010
RWRID

IDAHO REGIONAL WEATHER ROUNDUP
NATIONAL WEATHER SERVICE BOISE ID
600 PM MDT SUN JUN 25 2017

NOTE: "FAIR" INDICATES FEW OR NO CLOUDS BELOW 12000 FEET
WITH NO SIGNIFICANT WEATHER AND/OR OBSTRUCTIONS TO VISIBILITY

IDZ012-014-260100-
SOUTHWEST IDAHO


CITY           SKY/WX    TMP DP  RH WIND       PRES   REMARKS
BOISE          SUNNY     96  29   9 S6        29.99F HX  90
CALDWELL       SUNNY     97  44  16 CALM      29.97F HX  93
MOUNTAIN HOME  SUNNY     96  24   7 NW3       30.00F
$$

IDZ016-017-260100-
SOUTHCENTRAL IDAHO


CITY           SKY/WX    TMP DP  RH WIND       PRES   REMARKS
BURLEY         SUNNY     88  38  17 N12       30.09F
JEROME         SUNNY     92  38  15 N8        30.09F
TWIN FALLS     SUNNY     90  43  19 E8        30.09F
$$

IDZ019>023-260100-
SOUTHEAST IDAHO


CITY           SKY/WX    TMP DP  RH WIND       PRES   REMARKS
IDAHO FALLS    SUNNY     85  41  21 VRB6      30.20F
POCATELLO      SUNNY     88  41  19 N10       30.16F
REXBURG        SUNNY     82  35  18 CALM      30.21F
$$

IDZ006-010-011-018-031-032-260100-
CENTRAL IDAHO MOUNTAINS


CITY           SKY/WX    TMP DP  RH WIND       PRES   REMARKS
MCCALL         SUNNY     84  42  22 E3        30.16F
HAILEY         SUNNY     82  43  24 SE9       30.22F
STANLEY          N/A     84  30  14 VRB3      30.27F
SALMON         SUNNY     88  30  12 NW5       30.09F
CHALLIS        SUNNY     89  33  13 NW7       30.15F
$$

IDZ002-004-006-007-026-260100-
NORTHERN IDAHO


CITY           SKY/WX    TMP DP  RH WIND       PRES   REMARKS
LEWISTON       SUNNY     98  47  17 E6        29.90F HX  94
LOWELL           N/A     94  58  29 CALM      29.89F HX  93
COEUR D`ALENE  SUNNY     91  47  21 NE6       30.01F
MULLAN PASS    MOSUNNY   78  37  22 CALM      30.27F
$$




USA.gov is the U.S. government's official web portal to all federal, state and local government web resources and services.